Weather History for KUIL - October, 2012

Change the Weather History Date:

Friday, October 19, 2012

  Actual Average Record
Temperature  
Mean Temperature 49 °F 49 °F  
Max Temperature 58 °F 57 °F 71 °F (1976)
Min Temperature 40 °F 41 °F 29 °F (1976)
Degree Days  
Heating Degree Days 16 16  
Month to date heating degree days 262  
Since 1 July heating degree days 887  
Cooling Degree Days 0 0  
Month to date cooling degree days 0  
Year to date cooling degree days 19  
Moisture  
Dew Point 47 °F    
Average Humidity 90    
Maximum Humidity 100    
Minimum Humidity 74    
Precipitation  
Precipitation 0.57 in 0.36 in 1.88 in (1966)
Month to date precipitation 5.54  
Year to date precipitation 66.08  
Sea Level Pressure  
Sea Level Pressure 29.80 in    
Wind  
Wind Speed 5 mph (WSW)    
Max Wind Speed 20 mph    
Max Gust Speed 30 mph    
Visibility 4 miles    
Events Fog , Rain    
T = Trace of Precipitation, MM = Missing Value Source: NWS Daily Summary

Daily Weather History Graph

Daily Weather History Graph

Search for Another Location

Airport or City:

Trip Planner

Search our weather history database for the weather conditions in past years. The results will help you decide how hot, cold, wet, or windy it might be!

Date:

Astronomy

Oct. 19, 2012 Rise Set
Actual Time 7:44 AM PDT 6:21 PM PDT
Civil Twilight 7:12 AM PDT 6:52 PM PDT
Nautical Twilight 6:36 AM PDT 7:28 PM PDT
Astronomical Twilight 6:00 AM PDT 8:04 PM PDT
Moon 12:48 PM PDT (10/19) 9:50 PM PDT (10/19)
Length of Visible Light 11h 39m
Length of Day
10h 36m
Waxing Crescent, 24% of the Moon is Illuminated
Oct 19
Waxing Crescent
Oct 21
First Quarter
Oct 29
Full
Nov 6
Last Quarter
Nov 13
New

Hourly Weather History & Observations

Time (PDT) Temp. Windchill Dew Point Humidity Pressure Visibility Wind Dir Wind Speed Gust Speed Precip Events Conditions
12:07 AM 55.4 °F - 55.4 °F 100% 29.74 in 1.2 mi SSW 10.4 mph 21.9 mph 0.04 in Rain Rain
12:16 AM 55.4 °F - 55.4 °F 100% 29.74 in 2.0 mi SSW 9.2 mph 18.4 mph 0.06 in Rain Light Rain
12:24 AM 57.2 °F - 55.4 °F 94% 29.74 in 6.0 mi SSW 11.5 mph 19.6 mph 0.06 in   Overcast
12:53 AM 57.0 °F - 55.0 °F 93% 29.74 in 5.0 mi South 15.0 mph 28.8 mph 0.06 in   Overcast
1:09 AM 57.2 °F - 55.4 °F 94% 29.74 in 2.0 mi South 12.7 mph 20.7 mph 0.01 in Rain Light Rain
1:20 AM 57.2 °F - 55.4 °F 94% 29.74 in 5.0 mi South 13.8 mph 25.3 mph 0.01 in Rain Light Rain
1:53 AM 57.9 °F - 55.9 °F 93% 29.75 in 4.0 mi SSW 17.3 mph 25.3 mph 0.02 in Rain Light Rain
2:12 AM 57.2 °F - 55.4 °F 94% 29.74 in 4.0 mi SSW 13.8 mph 26.5 mph 0.00 in   Overcast
2:32 AM 57.2 °F - 55.4 °F 94% 29.74 in 6.0 mi SSW 11.5 mph 26.5 mph 0.00 in   Overcast
2:45 AM 57.2 °F - 55.4 °F 94% 29.74 in 4.0 mi SSW 12.7 mph 26.5 mph 0.01 in Rain Light Rain
2:53 AM 57.9 °F - 55.9 °F 93% 29.74 in 4.0 mi SSW 12.7 mph 25.3 mph 0.01 in Rain Light Rain
3:11 AM 57.2 °F - 55.4 °F 94% 29.74 in 1.8 mi SSW 11.5 mph 24.2 mph 0.00 in Rain Light Rain
3:33 AM 57.2 °F - 55.4 °F 94% 29.74 in 1.0 mi SSW 11.5 mph 19.6 mph 0.04 in Rain Rain
3:53 AM 57.0 °F - 55.0 °F 93% 29.74 in 1.2 mi SSW 12.7 mph - 0.09 in Rain Light Rain
4:00 AM 55.4 °F - 53.6 °F 94% 29.75 in 1.5 mi West 13.8 mph 19.6 mph 0.00 in Rain Light Rain
4:26 AM 53.6 °F - 51.8 °F 94% 29.76 in 2.0 mi West 8.1 mph - 0.03 in Rain Light Rain
4:46 AM 53.6 °F - 51.8 °F 94% 29.76 in 2.0 mi West 8.1 mph - 0.04 in Rain Light Rain
4:53 AM 53.1 °F - 51.1 °F 93% 29.77 in 2.0 mi West 8.1 mph - 0.04 in Rain Light Rain
5:09 AM 53.6 °F - 50.0 °F 88% 29.77 in 5.0 mi WNW 9.2 mph - 0.01 in   Overcast
5:34 AM 53.6 °F - 50.0 °F 88% 29.78 in 2.0 mi WNW 5.8 mph - 0.01 in Rain Light Rain
5:44 AM 51.8 °F - 50.0 °F 94% 29.79 in 4.0 mi West 6.9 mph - 0.01 in   Overcast
5:53 AM 52.0 °F - 48.9 °F 89% 29.80 in 7.0 mi WNW 6.9 mph - 0.01 in   Overcast
6:13 AM 51.8 °F - 48.2 °F 88% 29.80 in 7.0 mi WNW 5.8 mph - N/A   Overcast
6:39 AM 51.8 °F - 48.2 °F 88% 29.81 in 6.0 mi NW 5.8 mph - N/A   Overcast
6:53 AM 51.1 °F - 48.9 °F 92% 29.82 in 4.0 mi NW 5.8 mph - 0.00 in Rain Light Rain
7:18 AM 51.8 °F - 48.2 °F 88% 29.82 in 5.0 mi NW 5.8 mph - N/A   Overcast
7:33 AM 51.8 °F - 48.2 °F 88% 29.82 in 4.0 mi West 5.8 mph - 0.00 in Rain Light Rain
7:45 AM 50.0 °F - 48.2 °F 94% 29.83 in 2.5 mi WNW 5.8 mph - 0.00 in   Overcast
7:53 AM 50.0 °F - 48.0 °F 93% 29.83 in 3.0 mi NW 3.5 mph - 0.00 in Rain Light Rain
8:00 AM 50.0 °F - 46.4 °F 87% 29.83 in 8.0 mi Calm Calm - 0.00 in   Overcast
8:49 AM 50.0 °F - 46.4 °F 87% 29.84 in 2.0 mi WNW 3.5 mph - 0.00 in Rain Light Rain
8:53 AM 50.0 °F - 46.9 °F 89% 29.85 in 1.8 mi WNW 5.8 mph - 0.00 in Rain Light Rain
8:58 AM 50.0 °F - 46.4 °F 87% 29.85 in 3.0 mi WNW 3.5 mph - 0.00 in Rain Light Rain
9:50 AM 51.8 °F - 46.4 °F 82% 29.85 in 8.0 mi Calm Calm - 0.00 in   Overcast
9:53 AM 51.1 °F - 46.9 °F 86% 29.86 in 8.0 mi Calm Calm - 0.00 in   Overcast
10:53 AM 52.0 °F - 46.9 °F 83% 29.87 in 7.0 mi SW 3.5 mph - N/A   Overcast
11:16 AM 51.8 °F - 46.4 °F 82% 29.87 in 7.0 mi WSW 4.6 mph - N/A   Overcast
11:28 AM 51.8 °F - 46.4 °F 82% 29.87 in 7.0 mi SW 5.8 mph - N/A   Overcast
11:35 AM 51.8 °F - 48.2 °F 88% 29.87 in 7.0 mi SW 3.5 mph - N/A   Overcast
11:53 AM 52.0 °F - 46.9 °F 83% 29.86 in 7.0 mi West 4.6 mph - N/A   Overcast
12:01 PM 51.8 °F - 46.4 °F 82% 29.86 in 2.5 mi West 8.1 mph - 0.00 in Rain Light Rain
12:11 PM 50.0 °F - 46.4 °F 87% 29.86 in 1.5 mi West 9.2 mph - 0.00 in Rain Light Rain
12:33 PM 48.2 °F - 46.4 °F 93% 29.87 in 1.8 mi West 4.6 mph - 0.01 in Rain Light Rain
12:40 PM 50.0 °F - 46.4 °F 87% 29.86 in 2.0 mi Variable 4.6 mph - 0.01 in Rain Light Rain
12:47 PM 50.0 °F - 46.4 °F 87% 29.86 in 3.0 mi South 3.5 mph - 0.01 in Rain Light Rain
12:53 PM 50.0 °F - 46.9 °F 89% 29.86 in 7.0 mi South 3.5 mph - 0.01 in   Overcast
1:53 PM 51.1 °F - 46.9 °F 86% 29.85 in 7.0 mi Calm Calm - 0.00 in   Overcast
2:08 PM 51.8 °F - 46.4 °F 82% 29.84 in 7.0 mi Calm Calm - N/A   Overcast
2:53 PM 52.0 °F - 46.9 °F 83% 29.83 in 7.0 mi SW 5.8 mph - N/A   Overcast
3:45 PM 53.6 °F - 46.4 °F 77% 29.82 in 8.0 mi SSW 6.9 mph - N/A   Mostly Cloudy
3:53 PM 53.1 °F - 45.0 °F 74% 29.82 in 8.0 mi WSW 6.9 mph - N/A   Mostly Cloudy
4:17 PM 51.8 °F - 44.6 °F 76% 29.80 in 8.0 mi Variable 3.5 mph - N/A   Scattered Clouds
4:53 PM 51.1 °F - 46.0 °F 83% 29.79 in 7.0 mi South 3.5 mph - N/A   Mostly Cloudy
5:51 PM 50.0 °F - 46.4 °F 87% 29.78 in 2.5 mi Calm Calm - 0.01 in Rain Light Rain
5:53 PM 50.0 °F - 46.0 °F 86% 29.78 in 2.5 mi Calm Calm - 0.01 in Rain Light Rain
6:24 PM 48.2 °F - 46.4 °F 93% 29.78 in 3.0 mi Calm Calm - 0.04 in Rain Rain
6:31 PM 48.2 °F - 46.4 °F 93% 29.79 in 1.8 mi Variable 4.6 mph - 0.06 in Rain Heavy Rain
6:37 PM 48.2 °F - 44.6 °F 87% 29.79 in 0.8 mi NNW 5.8 mph - 0.17 in Rain Heavy Rain
6:42 PM 48.2 °F - 44.6 °F 87% 29.79 in 1.2 mi WNW 4.6 mph - 0.21 in Rain Rain
6:44 PM 48.2 °F - 44.6 °F 87% 29.79 in 2.0 mi West 4.6 mph - 0.21 in Rain Rain
6:51 PM 48.2 °F - 44.6 °F 87% 29.79 in 4.0 mi Variable 3.5 mph - 0.22 in Rain Light Rain
6:52 PM 48.0 °F - 44.1 °F 86% 29.79 in 4.0 mi WSW 3.5 mph - 0.22 in Rain Light Rain
6:58 PM 46.4 °F 45.2 °F 44.6 °F 93% 29.79 in 2.5 mi Variable 3.5 mph - 0.01 in Rain Rain
7:07 PM 46.4 °F 42.9 °F 44.6 °F 93% 29.80 in 1.5 mi West 6.9 mph - 0.04 in Rain Heavy Rain
7:15 PM 46.4 °F 44.3 °F 44.6 °F 93% 29.80 in 2.0 mi WNW 4.6 mph - 0.08 in Rain Rain
7:22 PM 46.4 °F 44.3 °F 44.6 °F 93% 29.80 in 3.0 mi West 4.6 mph - 0.10 in Rain Rain
7:53 PM 46.9 °F - 44.1 °F 90% 29.79 in 6.0 mi Calm Calm - 0.11 in Rain Light Rain
8:26 PM 46.4 °F - 42.8 °F 87% 29.79 in 1.5 mi Calm Calm - 0.00 in   Scattered Clouds
8:33 PM 44.6 °F - 42.8 °F 93% 29.79 in 1.0 mi Calm Calm - 0.00 in   Partly Cloudy
8:38 PM 44.6 °F - 42.8 °F 93% 29.79 in 0.8 mi Calm Calm - 0.00 in   Mist
8:43 PM 44.6 °F - 42.8 °F 93% 29.79 in 0.2 mi Calm Calm - 0.00 in Fog Fog
8:50 PM 44.6 °F - 42.8 °F 93% 29.79 in 0.2 mi Calm Calm - 0.00 in Fog Fog
8:53 PM 44.1 °F - 43.0 °F 96% 29.80 in 0.2 mi Calm Calm - 0.00 in Fog Fog
9:06 PM 44.6 °F - 42.8 °F 93% 29.79 in 0.5 mi Calm Calm - N/A Fog Fog
9:16 PM 44.6 °F - 42.8 °F 93% 29.79 in 1.2 mi Calm Calm - N/A   Overcast
9:19 PM 44.6 °F - 42.8 °F 93% 29.79 in 0.8 mi Calm Calm - N/A   Overcast
9:31 PM 44.6 °F - 42.8 °F 93% 29.79 in 0.2 mi Calm Calm - N/A Fog Fog
9:38 PM 44.6 °F 43.1 °F 42.8 °F 93% 29.79 in 0.5 mi SSE 3.5 mph - N/A Fog Fog
9:53 PM 44.1 °F 42.5 °F 42.1 °F 93% 29.80 in 0.5 mi South 3.5 mph - 0.00 in Fog , Rain Light Rain
10:05 PM 44.6 °F 40.2 °F 42.8 °F 93% 29.81 in 1.5 mi WNW 8.1 mph - 0.00 in Rain Light Rain
10:10 PM 44.6 °F 41.4 °F 42.8 °F 93% 29.81 in 3.0 mi Variable 5.8 mph - 0.00 in Rain Light Rain
10:20 PM 44.6 °F 40.7 °F 41.0 °F 87% 29.81 in 2.5 mi WSW 6.9 mph - 0.05 in Rain Light Rain
10:28 PM 44.6 °F 42.2 °F 41.0 °F 87% 29.80 in 10.0 mi WSW 4.6 mph - 0.05 in   Overcast
10:53 PM 44.1 °F - 41.0 °F 89% 29.82 in 9.0 mi Calm Calm - 0.05 in   Mostly Cloudy
11:24 PM 42.8 °F - 39.2 °F 87% 29.81 in 1.2 mi Calm Calm - N/A   Partly Cloudy
11:26 PM 41.0 °F - 39.2 °F 93% 29.82 in 0.8 mi Calm Calm - N/A   Mist
11:39 PM 39.2 °F - 39.2 °F 100% 29.82 in 0.2 mi Calm Calm - N/A Fog Fog
11:51 PM 41.0 °F 38.0 °F 39.2 °F 93% 29.82 in 0.5 mi SE 4.6 mph - N/A Fog Fog
11:53 PM 39.9 °F - 39.0 °F 97% 29.82 in 0.5 mi Calm Calm - N/A Fog Fog
11:59 PM 41.0 °F - 39.2 °F 93% 29.82 in 1.0 mi Calm Calm - N/A   Mostly Cloudy